Regional Weather Roundup
Issued by NWS

Home | Current Version | Previous Version | Graphics & Text | Print | Product List | Glossary On
Versions: 1 2 3 4 5 6 7 8 9 10 11 12 13 14 15 16 17 18 19 20 21 22 23 24 25 26 27 28 29 30 31 32 33 34 35 36 37 38 39 40 41 42 43 44 45 46 47 48 49 50
000
ASUS43 KBIS 230931
RWRND
NORTH DAKOTA REGIONAL WEATHER ROUNDUP
NATIONAL WEATHER SERVICE EASTERN NORTH DAKOTA/GRAND FORKS ND
400 AM CDT TUE MAY 23 2017

  NOTE: "FAIR" INDICATES FEW OR NO CLOUDS BELOW 12,000 FEET WITH NO
  SIGNIFICANT WEATHER AND/OR OBSTRUCTIONS TO VISIBILITY.

NDZ001>003-009>011-017-231000-
...NORTHWEST NORTH DAKOTA...

CITY           SKY/WX    TMP DP  RH WIND       PRES   REMARKS
WILLISTON      FAIR      40  35  83 CALM      30.16S
MINOT          FAIR      46  36  68 NW12      30.10S
MINOT AFB      FAIR      42  37  84 NW9       30.10S
$$

NDZ018>021-031>035-040>046-231000-
...SOUTHWEST NORTH DAKOTA...

CITY           SKY/WX    TMP DP  RH WIND       PRES   REMARKS
BISMARCK       CLOUDY    52  39  61 NW13      30.05S
DICKINSON      FAIR      35  31  85 NW8       30.12S WCI  29
GARRISON         N/A     41  35  79 NW10      30.10R
HETTINGER      MOCLDY    41  34  76 N8        30.14R
$$

NDZ004>008-012>016-024-026-027-054-231000-
...NORTHEAST NORTH DAKOTA...

CITY           SKY/WX    TMP DP  RH WIND       PRES   REMARKS
GRAND FORKS    LGT RAIN  49  46  90 N14       29.94S
GRAND FORKS AF CLOUDY    46  46 100 N17       29.95S
DEVILS LAKE    CLOUDY    46  41  82 N16G22    30.01S
$$

NDZ022-023-025-028>030-036>039-047>053-231000-
...SOUTHEAST NORTH DAKOTA...

CITY           SKY/WX    TMP DP  RH WIND       PRES   REMARKS
JAMESTOWN      CLOUDY    46  43  89 N16       29.96R
FARGO          CLOUDY    48  46  93 N16       29.90S
WAHPETON       CLOUDY    46  43  87 N12       29.89R
$$




USA.gov is the U.S. government's official web portal to all federal, state and local government web resources and services.